[Date Prev][Date Next][Thread Prev][Thread Next] - [Date Index][Thread Index][Author Index]

2 Line ISS Keps 11-6



ISS
1 25544U 98067A   01310.14240741  .00039826  00000-0  49139-3 0  6925
2 25544  51.6312  94.8381 0009150 294.9584  52.9126 15.59720620169221


----
Via the sarex mailing list at AMSAT.ORG courtesy of AMSAT-NA.
To unsubscribe, send "unsubscribe sarex" to Majordomo@amsat.org



AMSAT Top AMSAT Home